Location: Kosice
(0.0000°N, 21.2500°E)
Time: 05:23:32
(UTC+01:00)

GEOS 3 Rocket - Pass Details

Date: 24 January 2021
Orbit: 772 x 847 km, 115.0° (Epoch: 04 March)

Event Time Altitude Azimuth Distance (km) Brightness Sun altitude
Exits shadow 19:16:54 29° 20° (NNE) 1,437 4.5 -21.1°
Maximum altitude 19:19:37 77° 299° (WNW) 822 3.6 -21.8°
Drops below altitude 10° 19:24:42 10° 213° (SSW) 2,350 6.7 -23.0°
Sets 19:26:58 0° 211° (SSW) 3,271 7.6 -23.5°
